QPF
0.00 0.01 0.01 0.02 0.02 0.02 0.02 0.02 0.01 0.00 0.00 0.00 0.00 0.00 0.00 0.00 0.00 0.00 0.00 0.00 0.00 0.00 0.00 0.00 0.00 0.00 0.00 0.00 0.00 0.00 0.00 0.00 0.00 0.00 0.00 0.00 0.00 0.00 0.00 0.00 0.00 0.00 0.00
0.00 0.01 0.01 0.02 0.02 0.02 0.03 0.08 0.04 0.01 0.00 0.00 0.01 0.00 0.00 0.00 0.00 0.00 0.00 0.00 0.00 0.00 0.00 0.00 0.00 0.00 0.00 0.00 0.00 0.00 0.00 0.00 0.00 0.00 0.00 0.00 0.00 0.00 0.00 0.00 0.00 0.00 0.00
0.00 0.00 0.01 0.01 0.02 0.01 0.02 0.06 0.06 0.06 0.04 0.03 0.01 0.00 0.00 0.00 0.00 0.00 0.00 0.00 0.00 0.00 0.00 0.00 0.00 0.00 0.00 0.00 0.00 0.00 0.00 0.00 0.00 0.00 0.00 0.00 0.00 0.00 0.00 0.00 0.00 0.00 0.00
0.00 0.00 0.00 0.01 0.01 0.01 0.04 0.07 0.12 0.06 0.08 0.03 0.00 0.00 0.00 0.00 0.00 0.00 0.00 0.00 0.00 0.00 0.00 0.00 0.00 0.00 0.00 0.00 0.00 0.00 0.00 0.00 0.00 0.00 0.00 0.00 0.00 0.00 0.00 0.00 0.00 0.00 0.00
0.00 0.00 0.00 0.00 0.01 0.01 0.01 0.05 0.11 0.10 0.07 0.03 0.01 0.00 0.00 0.00 0.00 0.00 0.00 0.00 0.00 0.00 0.00 0.00 0.00 0.00 0.00 0.00 0.00 0.00 0.00 0.00 0.00 0.00 0.00 0.00 0.00 0.00 0.00 0.00 0.00 0.00 0.00
0.00 0.00 0.00 0.00 0.01 0.01 0.01 0.02 0.04 0.09 0.08 0.03 0.01 0.00 0.00 0.00 0.00 0.00 0.00 0.00 0.00 0.00 0.00 0.00 0.00 0.00 0.00 0.00 0.00 0.00 0.00 0.00 0.00 0.00 0.00 0.00 0.00 0.00 0.00 0.00 0.00 0.00 0.00
0.00 0.00 0.00 0.00 0.00 0.00 0.01 0.00 0.01 0.05 0.03 0.01 0.00 0.00 0.00 0.00 0.00 0.00 0.00 0.00 0.00 0.00 0.00 0.00 0.00 0.00 0.00 0.00 0.00 0.00 0.00 0.00 0.00 0.00 0.00 0.00 0.00 0.00 0.00 0.00 0.00 0.00 0.00
0.00 0.00 0.00 0.00 0.00 0.00 0.00 0.01 0.00 0.01 0.01 0.00 0.00 0.00 0.00 0.00 0.00 0.00 0.00 0.00 0.00 0.00 0.00 0.00 0.00 0.00 0.00 0.00 0.00 0.00 0.00 0.00 0.00 0.00 0.00 0.00 0.00 0.00 0.00 0.00 0.00 0.00 0.00
0.00 0.00 0.00 0.00 0.00 0.00 0.00 0.00 0.01 0.01 0.00 0.02 0.02 0.00 0.00 0.00 0.00 0.00 0.00 0.00 0.00 0.00 0.00 0.00 0.00 0.00 0.00 0.00 0.00 0.00 0.00 0.00 0.00 0.00 0.00 0.00 0.00 0.00 0.00 0.00 0.00 0.00 0.00
0.00 0.00 0.00 0.00 0.00 0.00 0.00 0.00 0.00 0.00 0.00 0.00 0.02 0.01 0.00 0.00 0.00 0.00 0.00 0.00 0.00 0.00 0.00 0.00 0.00 0.00 0.00 0.00 0.00 0.00 0.00 0.00 0.00 0.00 0.00 0.00 0.00 0.00 0.00 0.00 0.00 0.00 0.00
0.00 0.00 0.00 0.00 0.00 0.00 0.00 0.00 0.00 0.00 0.00 0.00 0.00 0.00 0.00 0.00 0.01 0.01 0.00 0.00 0.00 0.00 0.00 0.00 0.00 0.00 0.00 0.00 0.00 0.00 0.00 0.00 0.01 0.00 0.00 0.00 0.00 0.00 0.00 0.00 0.00 0.00 0.00
0.00 0.00 0.00 0.00 0.00 0.00 0.00 0.00 0.00 0.00 0.00 0.00 0.00 0.01 0.01 0.01 0.02 0.04 0.04 0.03 0.01 0.01 0.01 0.02 0.01 0.01 0.00 0.00 0.00 0.00 0.00 0.01 0.01 0.01 0.01 0.00 0.00 0.00 0.00 0.00 0.00 0.00 0.00
0.00 0.00 0.00 0.00 0.00 0.00 0.00 0.00 0.00 0.00 0.00 0.00 0.01 0.02 0.03 0.04 0.03 0.04 0.04 0.05 0.05 0.05 0.06 0.05 0.03 0.03 0.04 0.03 0.02 0.02 0.01 0.00 0.00 0.00 0.00 0.01 0.01 0.01 0.01 0.02 0.01 0.01 0.02
0.00 0.00 0.00 0.00 0.00 0.00 0.00 0.00 0.00 0.00 0.00 0.00 0.00 0.02 0.02 0.04 0.07 0.11 0.11 0.10 0.08 0.06 0.06 0.07 0.07 0.06 0.03 0.02 0.02 0.01 0.03 0.03 0.03 0.03 0.02 0.02 0.02 0.01 0.02 0.01 0.01 0.01 0.01
0.00 0.00 0.00 0.00 0.00 0.01 0.04 0.03 0.02 0.02 0.02 0.02 0.02 0.02 0.02 0.01 0.02 0.03 0.05 0.04 0.05 0.05 0.04 0.04 0.03 0.03 0.02 0.01 0.01 0.01 0.02 0.02 0.01 0.01 0.01 0.01 0.01 0.01 0.00 0.00 0.00 0.00 0.00
0.01 0.01 0.01 0.03 0.04 0.07 0.10 0.11 0.11 0.06 0.03 0.02 0.03 0.04 0.03 0.02 0.02 0.01 0.01 0.01 0.02 0.03 0.03 0.03 0.03 0.03 0.02 0.01 0.01 0.01 0.01 0.01 0.02 0.01 0.00 0.00 0.00 0.00 0.00 0.00 0.00 0.00 0.00
0.00 0.00 0.01 0.02 0.04 0.06 0.08 0.11 0.11 0.11 0.07 0.04 0.02 0.01 0.01 0.00 0.01 0.00 0.00 0.01 0.01 0.01 0.02 0.01 0.01 0.01 0.01 0.00 0.00 0.01 0.01 0.02 0.02 0.01 0.01 0.01 0.01 0.00 0.00 0.00 0.00 0.00 0.00
0.00 0.00 0.00 0.00 0.00 0.00 0.01 0.01 0.02 0.03 0.03 0.02 0.01 0.01 0.00 0.00 0.00 0.00 0.00 0.00 0.00 0.00 0.00 0.00 0.00 0.00 0.00 0.00 0.00 0.00 0.00 0.00 0.00 0.00 0.00 0.00 0.00 0.00 0.00 0.00 0.00 0.00 0.00
0.00 0.00 0.00 0.01 0.01 0.01 0.01 0.00 0.00 0.00 0.00 0.00 0.00 0.00 0.00 0.00 0.00 0.00 0.00 0.00 0.00 0.00 0.00 0.00 0.00 0.00 0.00 0.00 0.00 0.00 0.00 0.00 0.00 0.00 0.00 0.00 0.00 0.00 0.00 0.00 0.00 0.00 0.00
0.00 0.00 0.00 0.00 0.00 0.00 0.00 0.00 0.00 0.00 0.00 0.00 0.00 0.00 0.00 0.00 0.00 0.00 0.00 0.00 0.00 0.00 0.00 0.00 0.00 0.00 0.00 0.00 0.00 0.00 0.00 0.00 0.00 0.00 0.00 0.00 0.00 0.00 0.00 0.00 0.00 0.00 0.00
0.00 0.00 0.00 0.00 0.00 0.00 0.00 0.00 0.00 0.00 0.00 0.00 0.00 0.00 0.00 0.00 0.00 0.00 0.00 0.00 0.00 0.00 0.00 0.00 0.00 0.00 0.00 0.00 0.00 0.00 0.00 0.00 0.00 0.00 0.00 0.00 0.00 0.00 0.00 0.00 0.00 0.00 0.00
0.00 0.00 0.00 0.00 0.00 0.00 0.00 0.00 0.00 0.00 0.00 0.00 0.00 0.00 0.00 0.00 0.00 0.00 0.00 0.00 0.00 0.00 0.00 0.00 0.00 0.00 0.00 0.00 0.00 0.00 0.00 0.00 0.00 0.00 0.00 0.00 0.00 0.00 0.00 0.00 0.00 0.00 0.00
0.00 0.00 0.00 0.00 0.00 0.00 0.00 0.00 0.00 0.00 0.00 0.00 0.00 0.00 0.00 0.00 0.00 0.00 0.00 0.00 0.00 0.00 0.00 0.00 0.00 0.00 0.00 0.00 0.00 0.00 0.00 0.00 0.00 0.00 0.00 0.00 0.00 0.00 0.00 0.00 0.00 0.00 0.00
0.00 0.00 0.00 0.00 0.00 0.00 0.00 0.00 0.00 0.00 0.00 0.00 0.00 0.00 0.00 0.00 0.00 0.00 0.00 0.00 0.00 0.00 0.00 0.00 0.00 0.00 0.00 0.00 0.00 0.00 0.00 0.00 0.00 0.00 0.00 0.00 0.00 0.00 0.00 0.00 0.00 0.00 0.00
0.00 0.00 0.00 0.00 0.00 0.00 0.00 0.00 0.00 0.00 0.00 0.00 0.00 0.00 0.00 0.00 0.00 0.00 0.00 0.00 0.00 0.00 0.00 0.00 0.00 0.00 0.00 0.00 0.00 0.00 0.00 0.00 0.00 0.00 0.00 0.00 0.00 0.00 0.00 0.00 0.00 0.00 0.00
0.00 0.00 0.00 0.00 0.00 0.00 0.00 0.00 0.00 0.00 0.00 0.00 0.00 0.00 0.00 0.00 0.00 0.00 0.00 0.00 0.00 0.00 0.00 0.00 0.00 0.00 0.00 0.00 0.00 0.00 0.00 0.00 0.00 0.00 0.00 0.00 0.00 0.00 0.00 0.00 0.00 0.00 0.00
MSLP
1012.22 1012.75 1013.39 1014.02 1014.82 1015.30 1016.04 1016.45 1016.79 1017.17 1017.73 1018.16 1018.76 1019.47 1020.09 1020.45 1020.93 1021.07 1021.10 1021.48 1021.90 1022.25 1022.63 1023.23 1023.74 1024.00 1024.35 1024.69 1024.97 1025.57 1025.79 1026.23 1026.41 1026.81 1026.95 1026.82 1026.72 1026.66 1026.65 1026.65 1026.77 1026.63 1026.50
1012.32 1012.77 1013.34 1013.92 1014.48 1015.02 1015.75 1016.34 1016.53 1017.00 1017.44 1017.82 1018.26 1019.07 1019.63 1020.34 1020.58 1020.96 1021.11 1021.35 1021.73 1022.19 1022.46 1022.92 1023.49 1023.89 1024.39 1024.73 1025.11 1025.20 1025.97 1026.12 1026.32 1026.83 1027.36 1027.41 1026.85 1026.42 1026.33 1026.50 1026.57 1026.61 1026.56
1011.58 1012.42 1013.21 1013.65 1014.12 1014.65 1015.20 1015.86 1016.23 1016.75 1017.16 1017.61 1018.21 1019.09 1019.85 1020.49 1020.81 1021.14 1021.21 1021.28 1021.50 1021.93 1022.24 1022.67 1023.16 1023.64 1024.07 1024.49 1024.83 1025.05 1025.44 1026.12 1026.43 1026.47 1026.82 1027.74 1027.58 1027.24 1026.19 1026.02 1026.22 1026.34 1026.48
1011.78 1012.22 1012.80 1013.29 1013.55 1014.18 1014.87 1015.40 1016.05 1016.58 1016.98 1017.39 1018.04 1018.67 1019.30 1019.83 1020.22 1020.66 1021.08 1021.19 1021.41 1021.83 1022.07 1022.45 1022.87 1023.38 1023.75 1024.23 1024.51 1024.74 1025.24 1025.68 1026.30 1026.70 1026.54 1026.81 1027.07 1027.40 1027.31 1026.29 1025.86 1025.90 1026.05
1011.49 1011.77 1012.26 1013.00 1013.41 1013.84 1014.43 1014.99 1015.82 1016.41 1016.77 1017.06 1017.68 1018.28 1018.91 1019.35 1019.82 1020.51 1021.08 1021.23 1021.35 1021.69 1021.94 1022.17 1022.66 1023.11 1023.53 1023.79 1024.21 1024.65 1025.07 1025.36 1025.80 1026.16 1026.36 1026.75 1027.02 1027.20 1027.54 1027.18 1026.24 1025.77 1025.39
1011.34 1011.72 1012.28 1012.89 1013.23 1013.55 1014.02 1014.63 1015.35 1015.99 1016.60 1017.15 1017.43 1017.93 1018.57 1019.06 1019.61 1020.32 1020.86 1021.10 1021.30 1021.50 1021.76 1021.88 1022.27 1022.74 1023.13 1023.49 1023.81 1024.18 1024.62 1024.91 1025.15 1025.44 1025.64 1025.88 1026.37 1026.70 1027.05 1027.22 1026.54 1026.16 1025.19
1010.88 1011.60 1012.11 1012.36 1012.82 1013.10 1013.58 1014.38 1014.99 1015.44 1016.03 1016.57 1016.94 1017.23 1017.89 1018.44 1018.99 1019.62 1020.15 1020.69 1020.96 1021.18 1021.35 1021.61 1021.99 1022.44 1022.65 1022.94 1023.30 1023.85 1024.17 1024.45 1024.70 1024.91 1025.17 1025.18 1025.38 1025.54 1025.82 1026.21 1026.06 1025.94 1025.14
1010.28 1010.87 1011.56 1012.11 1012.52 1012.80 1013.22 1013.95 1014.46 1014.95 1015.51 1016.00 1016.43 1017.14 1017.58 1017.89 1018.47 1019.02 1019.56 1019.96 1020.21 1020.51 1020.72 1021.19 1021.52 1021.84 1022.14 1022.49 1022.88 1023.30 1023.61 1023.86 1024.06 1024.24 1024.45 1024.42 1024.48 1024.71 1024.79 1024.88 1025.21 1025.24 1024.82
1010.24 1010.74 1011.32 1011.72 1012.12 1012.17 1012.54 1013.22 1013.85 1014.33 1014.90 1015.40 1016.19 1016.73 1017.25 1017.81 1018.26 1018.72 1019.24 1019.57 1019.78 1020.06 1020.32 1020.68 1021.09 1021.38 1021.77 1022.05 1022.49 1022.92 1022.90 1023.17 1023.31 1023.39 1023.53 1023.70 1023.54 1023.69 1023.75 1023.92 1024.01 1024.28 1024.32
1009.39 1010.15 1010.66 1011.02 1011.33 1011.63 1012.08 1012.90 1013.42 1013.70 1014.13 1014.86 1015.72 1016.41 1016.88 1017.42 1017.82 1018.31 1018.74 1019.12 1019.34 1019.51 1019.87 1020.20 1020.48 1020.85 1021.09 1021.43 1021.84 1022.24 1022.25 1022.54 1022.55 1022.64 1022.84 1022.85 1022.82 1022.98 1023.07 1023.28 1023.48 1023.58 1023.59
1009.03 1009.39 1009.96 1010.41 1010.90 1011.50 1011.84 1012.42 1013.19 1013.69 1013.98 1014.35 1015.06 1015.82 1016.46 1017.01 1017.47 1017.91 1018.25 1018.52 1018.81 1019.00 1019.35 1019.69 1020.00 1020.28 1020.49 1020.68 1021.20 1021.49 1021.53 1021.85 1021.84 1022.02 1022.08 1021.99 1022.03 1022.26 1022.34 1022.44 1022.58 1022.62 1022.66
1008.46 1009.02 1009.61 1010.26 1010.88 1011.39 1011.96 1012.38 1012.96 1013.64 1014.17 1014.62 1014.99 1015.46 1015.98 1016.60 1017.21 1017.58 1017.74 1018.09 1018.28 1018.31 1018.50 1019.03 1019.41 1019.63 1019.83 1020.04 1020.44 1020.68 1020.81 1021.01 1021.12 1021.09 1021.49 1021.43 1021.45 1021.54 1021.54 1021.66 1021.71 1021.77 1021.46
1008.73 1009.25 1009.71 1010.07 1010.74 1011.29 1011.91 1012.49 1013.06 1013.60 1014.19 1014.65 1015.20 1015.78 1016.10 1016.45 1016.76 1017.25 1017.79 1018.02 1018.23 1018.34 1018.43 1018.75 1018.96 1019.20 1019.45 1019.71 1019.90 1019.95 1020.08 1020.17 1020.25 1020.46 1020.66 1020.58 1020.86 1020.90 1020.85 1020.85 1020.74 1020.55 1020.35
1009.77 1009.88 1010.30 1010.47 1010.82 1011.31 1011.89 1012.61 1013.47 1013.92 1014.45 1014.89 1015.34 1015.92 1016.34 1016.61 1017.13 1017.49 1017.86 1018.13 1018.33 1018.49 1018.67 1018.79 1018.82 1018.88 1019.07 1019.23 1019.42 1019.59 1019.59 1019.53 1019.52 1019.75 1019.97 1020.11 1020.24 1020.17 1019.98 1019.82 1019.71 1019.53 1019.44
1010.29 1010.49 1010.78 1011.16 1011.68 1012.14 1012.46 1013.05 1013.70 1014.19 1014.59 1015.12 1015.62 1016.32 1016.84 1017.20 1017.52 1017.91 1018.15 1018.39 1018.52 1019.00 1019.26 1019.16 1019.13 1019.35 1019.46 1019.67 1019.82 1019.79 1019.76 1019.85 1019.83 1020.03 1020.10 1020.11 1020.31 1020.27 1020.25 1020.12 1019.67 1019.55 1019.27
1009.59 1010.02 1010.48 1011.10 1011.64 1012.23 1012.89 1013.43 1014.04 1014.58 1015.00 1015.43 1016.02 1016.68 1017.28 1017.66 1018.04 1018.22 1018.44 1018.58 1018.87 1019.16 1019.43 1019.36 1019.62 1019.84 1019.99 1019.71 1020.13 1020.47 1020.13 1019.69 1020.18 1020.11 1020.51 1020.30 1020.43 1020.53 1020.38 1020.49 1020.47 1020.00 1019.69
1009.73 1009.61 1009.64 1010.27 1011.01 1011.82 1012.78 1013.58 1014.24 1014.93 1015.54 1016.01 1016.51 1016.93 1017.45 1017.81 1018.30 1018.57 1018.67 1018.98 1019.16 1019.40 1019.80 1019.62 1019.66 1019.96 1020.12 1020.26 1020.32 1020.73 1020.24 1020.32 1020.52 1020.45 1020.13 1020.55 1020.69 1020.81 1020.72 1020.75 1020.33 1019.90 1019.94
1009.18 1009.87 1010.69 1011.22 1011.80 1012.35 1013.09 1013.89 1014.66 1015.23 1015.82 1016.55 1016.97 1017.33 1017.68 1018.17 1018.54 1018.87 1019.11 1019.40 1019.50 1019.70 1020.04 1019.71 1020.35 1019.93 1020.56 1020.61 1020.76 1020.80 1020.67 1020.80 1020.95 1020.79 1021.03 1020.75 1020.95 1021.21 1020.81 1020.59 1020.45 1020.05 1019.92
1009.51 1010.01 1010.65 1011.55 1012.28 1012.83 1013.66 1014.37 1015.15 1015.77 1016.51 1017.02 1017.42 1017.82 1018.00 1018.46 1018.85 1019.17 1019.46 1019.64 1019.78 1020.02 1020.30 1020.10 1020.55 1020.43 1021.03 1020.88 1021.02 1020.97 1020.98 1021.20 1021.30 1021.33 1021.33 1021.41 1021.09 1021.30 1020.73 1020.71 1020.60 1020.44 1020.13
1009.74 1010.38 1011.28 1012.09 1012.73 1013.69 1014.08 1014.74 1015.53 1016.04 1016.59 1017.14 1017.46 1017.75 1018.10 1018.65 1019.07 1019.45 1019.69 1019.93 1020.03 1020.23 1020.40 1020.71 1020.93 1021.24 1021.33 1021.26 1021.25 1021.30 1021.40 1021.60 1021.76 1021.70 1021.69 1021.61 1021.56 1021.41 1021.03 1021.00 1020.83 1020.52 1020.23
1011.04 1011.35 1011.86 1012.70 1013.47 1014.14 1014.63 1015.46 1016.16 1016.68 1017.05 1017.53 1017.93 1018.23 1018.56 1018.85 1019.29 1019.70 1019.97 1020.15 1020.34 1020.57 1020.89 1021.34 1021.71 1021.74 1021.70 1021.61 1021.70 1021.72 1021.71 1021.83 1021.91 1021.94 1021.90 1021.79 1021.61 1021.39 1021.24 1020.97 1020.84 1020.56 1020.21
1012.31 1012.62 1013.06 1013.74 1014.27 1014.65 1015.19 1016.10 1016.77 1017.18 1017.64 1018.22 1018.61 1018.99 1019.25 1019.44 1019.80 1020.05 1020.28 1020.51 1020.76 1021.05 1021.46 1021.86 1022.13 1022.23 1022.15 1021.98 1021.85 1021.71 1021.76 1021.79 1021.99 1022.08 1022.02 1021.82 1021.57 1021.44 1021.24 1021.04 1020.78 1020.45 1020.41
1013.10 1013.49 1013.87 1014.51 1015.06 1015.32 1015.61 1016.40 1017.24 1017.70 1018.16 1018.58 1019.04 1019.44 1019.66 1019.93 1020.19 1020.46 1020.75 1020.94 1021.22 1021.40 1021.79 1022.02 1022.28 1022.43 1022.45 1022.23 1021.97 1021.90 1021.91 1022.00 1021.99 1021.99 1021.88 1021.86 1021.70 1021.60 1021.46 1021.25 1021.12 1020.85 1020.67
1013.53 1013.94 1014.52 1015.16 1015.68 1015.98 1016.31 1016.75 1017.41 1017.86 1018.38 1018.90 1019.30 1019.69 1019.97 1020.22 1020.39 1020.55 1020.82 1021.20 1021.50 1021.70 1021.92 1022.09 1022.30 1022.45 1022.50 1022.38 1022.25 1022.18 1022.21 1022.10 1021.99 1022.03 1022.03 1021.99 1021.97 1021.93 1021.81 1021.69 1021.55 1021.40 1021.17
1013.80 1014.09 1014.61 1015.32 1015.97 1016.36 1016.78 1017.21 1017.62 1018.01 1018.51 1018.95 1019.32 1019.66 1020.00 1020.42 1020.77 1020.95 1021.14 1021.33 1021.59 1021.71 1021.86 1022.09 1022.28 1022.46 1022.55 1022.45 1022.25 1022.25 1022.25 1022.19 1022.10 1022.09 1022.23 1022.28 1022.23 1022.24 1022.02 1021.77 1021.66 1021.69 1021.50
1013.98 1014.43 1014.94 1015.46 1016.19 1016.69 1017.16 1017.55 1017.88 1018.26 1018.71 1019.18 1019.53 1019.81 1020.13 1020.50 1020.80 1021.04 1021.30 1021.38 1021.46 1021.62 1021.77 1022.00 1022.20 1022.40 1022.39 1022.46 1022.46 1022.45 1022.46 1022.37 1022.27 1022.47 1022.64 1022.72 1022.68 1022.55 1022.33 1022.16 1021.95 1021.74 1021.53
Thickness
5644 5646 5647 5646 5644 5644 5642 5643 5643 5645 5644 5642 5639 5637 5634 5635 5634 5635 5637 5635 5633 5633 5632 5629 5626 5626 5626 5625 5624 5621 5622 5619 5619 5617 5616 5616 5617 5618 5617 5617 5615 5614 5613
5636 5640 5642 5643 5643 5643 5640 5639 5642 5642 5642 5641 5639 5634 5633 5631 5633 5632 5633 5633 5632 5630 5631 5629 5626 5624 5622 5621 5619 5621 5616 5616 5616 5613 5608 5610 5614 5618 5618 5614 5612 5610 5609
5640 5640 5639 5641 5642 5641 5640 5638 5640 5639 5639 5638 5634 5630 5627 5626 5629 5628 5629 5630 5630 5629 5629 5627 5625 5624 5621 5619 5618 5618 5617 5612 5611 5612 5609 5601 5603 5603 5615 5615 5610 5607 5604
5636 5637 5637 5638 5642 5641 5640 5637 5636 5635 5635 5634 5631 5629 5629 5628 5627 5625 5625 5626 5626 5625 5625 5624 5623 5621 5620 5617 5616 5616 5614 5611 5608 5605 5607 5605 5603 5602 5601 5607 5609 5607 5603
5632 5638 5640 5639 5640 5639 5637 5636 5632 5630 5631 5628 5628 5627 5626 5626 5624 5623 5621 5622 5622 5620 5621 5622 5620 5618 5616 5616 5614 5612 5610 5609 5608 5606 5604 5600 5598 5595 5593 5594 5600 5603 5603
5629 5633 5636 5636 5636 5637 5637 5635 5631 5629 5626 5624 5626 5625 5622 5622 5620 5619 5617 5617 5617 5618 5617 5618 5617 5615 5614 5613 5612 5611 5609 5608 5607 5605 5604 5602 5597 5593 5589 5586 5590 5592 5598
5630 5628 5630 5635 5636 5636 5636 5632 5629 5628 5627 5625 5625 5625 5622 5620 5619 5617 5616 5614 5614 5614 5614 5614 5613 5611 5611 5611 5611 5608 5607 5605 5604 5603 5601 5601 5599 5596 5593 5588 5588 5589 5593
5633 5632 5632 5632 5633 5634 5633 5630 5629 5626 5625 5623 5622 5619 5619 5619 5616 5614 5613 5612 5614 5613 5612 5611 5610 5609 5608 5607 5607 5605 5604 5603 5602 5601 5599 5600 5599 5595 5594 5591 5586 5586 5587
5624 5627 5629 5630 5630 5634 5635 5632 5629 5627 5625 5623 5618 5617 5615 5613 5612 5609 5609 5610 5610 5609 5609 5608 5606 5606 5604 5604 5602 5601 5601 5601 5601 5601 5599 5598 5599 5596 5594 5592 5589 5588 5587
5629 5626 5628 5630 5631 5632 5633 5629 5627 5626 5625 5622 5616 5613 5612 5610 5609 5607 5607 5607 5607 5606 5606 5606 5605 5603 5602 5601 5600 5598 5599 5598 5599 5599 5597 5597 5596 5593 5591 5588 5585 5582 5583
5630 5632 5630 5631 5629 5627 5628 5629 5625 5623 5622 5621 5618 5614 5610 5608 5606 5605 5604 5603 5603 5603 5602 5602 5602 5602 5601 5600 5598 5597 5598 5596 5597 5596 5594 5595 5593 5590 5588 5585 5582 5581 5578
5631 5629 5628 5625 5622 5624 5623 5624 5622 5619 5615 5612 5612 5610 5608 5605 5602 5602 5602 5601 5600 5600 5601 5600 5600 5600 5600 5599 5596 5596 5596 5594 5594 5594 5589 5590 5588 5585 5585 5582 5579 5577 5577
5619 5619 5616 5620 5618 5617 5615 5614 5611 5610 5607 5605 5603 5600 5599 5598 5598 5596 5593 5593 5592 5592 5593 5593 5594 5594 5594 5593 5593 5593 5593 5593 5591 5589 5586 5586 5582 5581 5579 5577 5577 5577 5577
5595 5601 5603 5608 5610 5609 5606 5603 5598 5598 5597 5596 5594 5591 5590 5589 5586 5585 5583 5582 5582 5582 5582 5583 5585 5586 5586 5587 5586 5585 5586 5586 5586 5583 5580 5578 5575 5576 5576 5576 5575 5574 5572
5579 5585 5589 5590 5590 5590 5591 5589 5587 5586 5586 5584 5582 5577 5575 5575 5574 5572 5572 5571 5571 5568 5568 5570 5572 5571 5572 5570 5570 5572 5572 5570 5570 5567 5566 5565 5562 5562 5560 5560 5562 5560 5562
5579 5579 5582 5582 5581 5579 5577 5575 5573 5570 5570 5571 5568 5565 5561 5561 5560 5560 5560 5560 5558 5557 5556 5557 5556 5556 5557 5559 5557 5554 5553 5553 5553 5553 5548 5550 5548 5547 5546 5541 5537 5541 5541
5569 5575 5581 5580 5577 5572 5565 5561 5559 5556 5554 5553 5552 5551 5549 5548 5547 5547 5547 5546 5546 5545 5542 5545 5546 5544 5543 5543 5543 5540 5542 5539 5536 5537 5538 5534 5531 5530 5530 5527 5528 5529 5525
5564 5561 5557 5555 5557 5555 5554 5549 5545 5543 5541 5537 5536 5536 5536 5534 5534 5533 5533 5532 5532 5531 5529 5532 5528 5532 5527 5528 5528 5527 5525 5523 5520 5521 5518 5519 5516 5513 5515 5515 5513 5513 5510
5547 5545 5541 5538 5537 5538 5536 5533 5530 5527 5523 5522 5521 5520 5522 5521 5520 5519 5519 5519 5519 5518 5516 5518 5515 5516 5511 5514 5512 5511 5509 5507 5505 5503 5501 5500 5500 5497 5500 5498 5496 5494 5491
5527 5525 5521 5519 5519 5515 5516 5515 5512 5512 5510 5507 5507 5507 5507 5505 5503 5502 5502 5502 5502 5502 5502 5499 5497 5495 5493 5495 5495 5492 5490 5487 5485 5484 5482 5482 5480 5480 5480 5478 5477 5476 5475
5502 5503 5505 5502 5499 5498 5499 5496 5493 5492 5493 5492 5491 5490 5490 5489 5487 5485 5484 5485 5484 5483 5481 5478 5474 5473 5474 5475 5474 5472 5470 5468 5466 5464 5463 5462 5462 5461 5459 5459 5457 5457 5457
5480 5480 5480 5478 5478 5478 5479 5474 5473 5473 5472 5470 5470 5469 5468 5469 5467 5467 5466 5465 5464 5462 5459 5456 5455 5453 5453 5455 5455 5455 5452 5451 5446 5444 5442 5441 5442 5441 5440 5438 5439 5439 5435
5460 5460 5461 5458 5457 5459 5460 5456 5451 5451 5450 5450 5448 5448 5449 5448 5447 5447 5445 5446 5444 5442 5440 5439 5435 5434 5433 5434 5435 5434 5432 5430 5428 5426 5426 5424 5423 5421 5418 5417 5416 5414 5412
5442 5441 5441 5439 5437 5437 5439 5437 5434 5433 5432 5430 5429 5428 5427 5428 5428 5429 5427 5425 5422 5421 5421 5419 5416 5414 5414 5414 5413 5413 5411 5410 5409 5408 5406 5405 5402 5400 5397 5394 5392 5390 5388
5425 5426 5426 5423 5419 5419 5418 5417 5416 5415 5414 5412 5412 5411 5411 5408 5407 5407 5406 5406 5404 5403 5402 5400 5398 5395 5394 5394 5395 5393 5392 5391 5391 5388 5385 5383 5380 5377 5375 5373 5370 5367 5364
5409 5408 5407 5404 5400 5400 5399 5398 5397 5396 5395 5393 5393 5393 5392 5390 5389 5388 5386 5388 5388 5387 5386 5383 5381 5378 5377 5375 5374 5372 5371 5371 5370 5366 5363 5359 5356 5354 5353 5351 5348 5345 5343